• In Deutschland
  • Länderverzeichnis
  • Für 7 Tage
  • Wassertemperatur
  • Satellitenkarten
  • Wetterkarte
  • Widgets
  • user-avatar
    Anmelden

    Stündliche Wetter Andernach

    Heute, 18 Oktober, Mittwoch

    Zeit Temperatur Niederschläge Wind Luftdruck Luftfeuchtigkeit
    00:00 +14°C° 0 mm 1 m/S 755 mmHg 89%
    01:00 +13°C° 0 mm 1 m/S 755 mmHg 88%
    02:00 +13°C° 0 mm 1 m/S 755 mmHg 88%
    03:00 +13°C° 0 mm 1 m/S 754 mmHg 87%
    04:00 +12°C° 0 mm 1 m/S 754 mmHg 86%
    05:00 +12°C° 0 mm 1 m/S 754 mmHg 85%
    06:00 +12°C° 0 mm 1 m/S 754 mmHg 85%
    07:00 +13°C° 0 mm 2 m/S 754 mmHg 78%
    08:00 +15°C° 0 mm 2 m/S 754 mmHg 72%
    09:00 +17°C° 0 mm 2 m/S 754 mmHg 65%
    10:00 +18°C° 0 mm 2 m/S 753 mmHg 62%
    11:00 +19°C° 0 mm 2 m/S 753 mmHg 59%
    12:00 +21°C° 0 mm 2 m/S 753 mmHg 55%
    13:00 +20°C° 0 mm 2 m/S 753 mmHg 58%
    14:00 +20°C° 0 mm 2 m/S 752 mmHg 61%
    15:00 +21°C° 0 mm 1 m/S 752 mmHg 64%
    16:00 +19°C° 0 mm 1 m/S 752 mmHg 71%
    17:00 +18°C° 0 mm 1 m/S 752 mmHg 77%
    18:00 +15°C° 0 mm 1 m/S 752 mmHg 84%
    19:00 +14°C° 0 mm 1 m/S 752 mmHg 85%
    20:00 +14°C° 0 mm 1 m/S 752 mmHg 86%
    21:00 +14°C° 0 mm 1 m/S 752 mmHg 87%
    22:00 +13°C° 0 mm 1 m/S 752 mmHg 87%
    23:00 +13°C° 0 mm 1 m/S 752 mmHg 88%

    Morgen, 19 Oktober, Donnerstag

    Zeit Temperatur Niederschläge Wind Luftdruck Luftfeuchtigkeit
    00:00 +13°C° 0 mm 1 m/S 752 mmHg 88%
    01:00 +13°C° 0 mm 1 m/S 752 mmHg 88%
    02:00 +13°C° 0 mm 1 m/S 752 mmHg 87%
    03:00 +12°C° 0 mm 1 m/S 751 mmHg 86%
    04:00 +12°C° 0 mm 1 m/S 751 mmHg 85%
    05:00 +12°C° 0 mm 1 m/S 751 mmHg 83%
    06:00 +12°C° 0 mm 1 m/S 751 mmHg 82%
    07:00 +14°C° 0 mm 2 m/S 751 mmHg 76%
    08:00 +15°C° 0 mm 2 m/S 752 mmHg 70%
    09:00 +17°C° 0 mm 2 m/S 752 mmHg 65%
    10:00 +18°C° 0 mm 2 m/S 752 mmHg 61%
    11:00 +19°C° 0 mm 2 m/S 751 mmHg 57%
    12:00 +21°C° 0 mm 3 m/S 751 mmHg 53%
    13:00 +20°C° 0 mm 3 m/S 751 mmHg 55%
    14:00 +20°C° 0 mm 2 m/S 751 mmHg 57%
    15:00 +20°C° 0 mm 2 m/S 750 mmHg 59%
    16:00 +18°C° 0 mm 2 m/S 751 mmHg 62%
    17:00 +17°C° 0 mm 2 m/S 751 mmHg 66%
    18:00 +15°C° 0 mm 2 m/S 751 mmHg 70%
    19:00 +15°C° 0 mm 2 m/S 751 mmHg 70%
    20:00 +15°C° 0 mm 2 m/S 751 mmHg 70%
    21:00 +15°C° 0 mm 1 m/S 751 mmHg 71%
    22:00 +14°C° 0 mm 1 m/S 751 mmHg 73%
    23:00 +14°C° 0 mm 1 m/S 752 mmHg 75%

    übermorgen, 20 Oktober, Freitag

    Zeit Temperatur Niederschläge Wind Luftdruck Luftfeuchtigkeit
    00:00 +14°C° 0 mm 1 m/S 752 mmHg 77%
    01:00 +13°C° 0 mm 1 m/S 751 mmHg 78%
    02:00 +13°C° 0 mm 1 m/S 751 mmHg 80%
    03:00 +13°C° 0 mm 1 m/S 751 mmHg 81%
    04:00 +13°C° 0 mm 2 m/S 751 mmHg 81%
    05:00 +13°C° 0 mm 2 m/S 751 mmHg 80%
    06:00 +14°C° 0 mm 2 m/S 752 mmHg 80%
    07:00 +15°C° 0 mm 2 m/S 752 mmHg 78%
    08:00 +14°C° 0 mm 3 m/S 752 mmHg 76%
    09:00 +16°C° 0 mm 3 m/S 752 mmHg 74%
    10:00 +17°C° 0,1 mm 3 m/S 752 mmHg 72%
    11:00 +18°C° 0,1 mm 4 m/S 752 mmHg 69%
    12:00 +19°C° 0,1 mm 4 m/S 752 mmHg 67%
    13:00 +19°C° 0 mm 4 m/S 752 mmHg 68%
    14:00 +19°C° 0 mm 4 m/S 752 mmHg 69%
    15:00 +19°C° 0 mm 3 m/S 752 mmHg 70%
    16:00 +17°C° 0 mm 3 m/S 752 mmHg 76%
    17:00 +16°C° 0 mm 2 m/S 752 mmHg 81%
    18:00 +15°C° 0 mm 2 m/S 753 mmHg 86%
    19:00 +15°C° 0 mm 2 m/S 753 mmHg 88%
    20:00 +14°C° 0 mm 2 m/S 753 mmHg 90%
    21:00 +14°C° 0 mm 2 m/S 753 mmHg 91%
    22:00 +14°C° 0 mm 2 m/S 753 mmHg 91%
    23:00 +14°C° 0 mm 2 m/S 753 mmHg 92%

    21 Oktober, Samstag

    Zeit Temperatur Niederschläge Wind Luftdruck Luftfeuchtigkeit
    00:00 +14°C° 0 mm 2 m/S 753 mmHg 92%
    01:00 +14°C° 0 mm 2 m/S 752 mmHg 91%
    02:00 +14°C° 0 mm 2 m/S 752 mmHg 91%
    03:00 +14°C° 0 mm 2 m/S 752 mmHg 91%
    04:00 +14°C° 0 mm 2 m/S 752 mmHg 90%
    05:00 +14°C° 0 mm 2 m/S 752 mmHg 89%
    06:00 +14°C° 0 mm 2 m/S 751 mmHg 88%
    07:00 +13°C° 0,4 mm 3 m/S 752 mmHg 87%
    08:00 +14°C° 0,4 mm 3 m/S 752 mmHg 85%
    09:00 +16°C° 0,4 mm 3 m/S 752 mmHg 84%
    10:00 +15°C° 0,2 mm 4 m/S 752 mmHg 85%
    11:00 +15°C° 0,2 mm 4 m/S 752 mmHg 86%
    12:00 +15°C° 0,2 mm 4 m/S 752 mmHg 87%
    13:00 +15°C° 0,5 mm 4 m/S 752 mmHg 87%
    14:00 +15°C° 0,5 mm 4 m/S 752 mmHg 87%
    15:00 +15°C° 0,5 mm 4 m/S 752 mmHg 88%
    16:00 +14°C° 0 mm 4 m/S 752 mmHg 88%
    17:00 +13°C° 0 mm 3 m/S 753 mmHg 88%
    18:00 +12°C° 0 mm 3 m/S 753 mmHg 88%
    19:00 +12°C° 0 mm 4 m/S 753 mmHg 88%
    20:00 +12°C° 0 mm 4 m/S 753 mmHg 89%
    21:00 +11°C° 0 mm 4 m/S 753 mmHg 89%
    22:00 +11°C° 0 mm 4 m/S 753 mmHg 88%
    23:00 +11°C° 0 mm 4 m/S 753 mmHg 88%

    22 Oktober, Sonntag

    Zeit Temperatur Niederschläge Wind Luftdruck Luftfeuchtigkeit
    00:00 +10°C° 0 mm 3 m/S 753 mmHg 87%
    01:00 +10°C° 0 mm 4 m/S 753 mmHg 87%
    02:00 +10°C° 0 mm 4 m/S 753 mmHg 87%
    03:00 +10°C° 0 mm 4 m/S 753 mmHg 87%
    04:00 +10°C° 0 mm 4 m/S 754 mmHg 86%
    05:00 +10°C° 0 mm 4 m/S 754 mmHg 85%
    06:00 +10°C° 0 mm 4 m/S 754 mmHg 84%
    07:00 +10°C° 0 mm 4 m/S 754 mmHg 82%
    08:00 +9°C° 0 mm 5 m/S 755 mmHg 79%
    09:00 +10°C° 0 mm 5 m/S 755 mmHg 77%
    10:00 +10°C° 0,1 mm 5 m/S 755 mmHg 76%
    11:00 +10°C° 0,1 mm 5 m/S 755 mmHg 75%
    12:00 +10°C° 0,1 mm 5 m/S 755 mmHg 75%
    13:00 +10°C° 0,1 mm 5 m/S 756 mmHg 75%
    14:00 +11°C° 0,1 mm 4 m/S 756 mmHg 75%
    15:00 +11°C° 0,1 mm 4 m/S 756 mmHg 75%
    16:00 +10°C° 0 mm 4 m/S 757 mmHg 78%
    17:00 +10°C° 0 mm 3 m/S 757 mmHg 81%
    18:00 +9°C° 0 mm 3 m/S 758 mmHg 84%
    19:00 +8°C° 0 mm 3 m/S 758 mmHg 85%
    20:00 +8°C° 0 mm 3 m/S 758 mmHg 87%
    21:00 +7°C° 0 mm 3 m/S 759 mmHg 89%
    22:00 +7°C° 0 mm 3 m/S 759 mmHg 89%
    23:00 +7°C° 0 mm 3 m/S 759 mmHg 90%

    23 Oktober, Montag

    Zeit Temperatur Niederschläge Wind Luftdruck Luftfeuchtigkeit
    00:00 +7°C° 0 mm 3 m/S 759 mmHg 90%
    01:00 +7°C° 0 mm 3 m/S 759 mmHg 91%
    02:00 +7°C° 0 mm 3 m/S 759 mmHg 92%
    03:00 +7°C° 0 mm 3 m/S 759 mmHg 92%
    04:00 +7°C° 0 mm 3 m/S 759 mmHg 92%
    05:00 +7°C° 0 mm 3 m/S 760 mmHg 92%
    06:00 +7°C° 0 mm 3 m/S 760 mmHg 92%
    07:00 +8°C° 0 mm 3 m/S 760 mmHg 88%
    08:00 +8°C° 0 mm 4 m/S 760 mmHg 85%
    09:00 +10°C° 0 mm 4 m/S 760 mmHg 82%
    10:00 +11°C° 0 mm 4 m/S 760 mmHg 79%
    11:00 +12°C° 0 mm 5 m/S 760 mmHg 76%
    12:00 +13°C° 0 mm 5 m/S 760 mmHg 74%
    13:00 +13°C° 0 mm 4 m/S 759 mmHg 74%
    14:00 +13°C° 0 mm 4 m/S 759 mmHg 75%
    15:00 +13°C° 0 mm 4 m/S 759 mmHg 75%
    16:00 +12°C° 0 mm 3 m/S 759 mmHg 77%
    17:00 +12°C° 0 mm 3 m/S 759 mmHg 80%
    18:00 +11°C° 0 mm 3 m/S 759 mmHg 82%
    19:00 +11°C° 0 mm 3 m/S 758 mmHg 83%
    20:00 +11°C° 0 mm 3 m/S 758 mmHg 84%
    21:00 +10°C° 0 mm 3 m/S 758 mmHg 84%
    22:00 +10°C° 0 mm 3 m/S 758 mmHg 85%
    23:00 +10°C° 0 mm 3 m/S 758 mmHg 86%
    Mehr zeigen